Time,TemperatureF,DewpointF,PressureIn,WindDirection,WindDirectionDegrees,WindSpeedMPH,WindSpeedGustMPH,Humidity,HourlyPrecipIn,Conditions,Clouds,dailyrainin,SolarRadiationWatts/m^2,SoftwareType,DateUTC
2013-07-10 00:01:00,61.0,60.4,30.09,East,80,0.0,0.0,98,0.00,,,0.00,0,Wunderground v.1.15,2013-07-10 04:01:00,
2013-07-10 00:02:00,61.0,60.4,30.09,East,86,0.0,1.0,98,0.00,,,0.00,0,Wunderground v.1.15,2013-07-10 04:02:00,
2013-07-10 00:03:00,61.1,60.5,30.09,East,89,0.0,1.0,98,0.00,,,0.00,0,Wunderground v.1.15,2013-07-10 04:03:00,
2013-07-10 00:08:00,61.1,60.5,30.09,SSE,165,0.0,2.0,98,0.00,,,0.00,0,Wunderground v.1.15,2013-07-10 04:08:00,
2013-07-10 00:13:00,61.0,60.4,30.09,South,175,1.0,1.0,98,0.00,,,0.00,0,Wunderground v.1.15,2013-07-10 04:13:00,
2013-07-10 00:15:00,61.0,60.4,30.09,South,178,1.0,1.0,98,0.00,,,0.00,0,Wunderground v.1.15,2013-07-10 04:15:00,
2013-07-10 00:20:00,61.0,60.4,30.09,SSE,167,0.0,0.0,98,0.00,,,0.00,0,Wunderground v.1.15,2013-07-10 04:20:00,
2013-07-10 00:25:00,61.0,60.4,30.09,South,186,0.0,0.0,98,0.00,,,0.00,0,Wunderground v.1.15,2013-07-10 04:25:00,
2013-07-10 00:31:00,61.1,60.5,30.09,South,189,0.0,0.0,98,0.00,,,0.00,0,Wunderground v.1.15,2013-07-10 04:31:00,
2013-07-10 00:37:00,61.1,60.5,30.09,SSE,161,0.0,1.0,98,0.00,,,0.00,0,Wunderground v.1.15,2013-07-10 04:37:00,
2013-07-10 00:42:00,61.0,60.4,30.08,SE,138,1.0,1.0,98,0.00,,,0.00,0,Wunderground v.1.15,2013-07-10 04:42:00,
2013-07-10 00:47:00,61.0,60.4,30.08,SE,146,1.0,2.0,98,0.00,,,0.00,0,Wunderground v.1.15,2013-07-10 04:47:00,
2013-07-10 00:53:00,61.0,60.4,30.08,SSE,158,1.0,1.0,98,0.00,,,0.00,0,Wunderground v.1.15,2013-07-10 04:53:00,
2013-07-10 00:58:00,61.1,60.5,30.08,SSE,158,0.0,1.0,98,0.00,,,0.00,0,Wunderground v.1.15,2013-07-10 04:58:00,
2013-07-10 01:03:00,61.1,60.5,30.08,SSE,157,0.0,0.0,98,0.00,,,0.00,0,Wunderground v.1.15,2013-07-10 05:03:00,
2013-07-10 01:08:00,61.1,60.5,30.08,SSE,159,0.0,1.0,98,0.00,,,0.00,0,Wunderground v.1.15,2013-07-10 05:08:00,
2013-07-10 01:14:00,61.1,60.5,30.08,SSE,165,0.0,2.0,98,0.00,,,0.00,0,Wunderground v.1.15,2013-07-10 05:14:00,
2013-07-10 01:20:00,61.1,60.5,30.08,SSE,166,0.0,1.0,98,0.00,,,0.00,0,Wunderground v.1.15,2013-07-10 05:20:00,
2013-07-10 01:25:00,61.1,60.5,30.07,SSE,166,0.0,1.0,98,0.00,,,0.00,0,Wunderground v.1.15,2013-07-10 05:25:00,
2013-07-10 01:30:00,61.1,60.5,30.07,SE,140,0.0,2.0,98,0.00,,,0.00,0,Wunderground v.1.15,2013-07-10 05:30:00,
2013-07-10 01:36:00,61.0,60.4,30.07,East,98,1.0,2.0,98,0.00,,,0.00,0,Wunderground v.1.15,2013-07-10 05:36:00,
2013-07-10 01:42:00,61.0,60.4,30.07,SE,143,0.0,1.0,98,0.00,,,0.00,0,Wunderground v.1.15,2013-07-10 05:42:00,
2013-07-10 01:48:00,60.9,60.3,30.07,SE,131,0.0,1.0,98,0.00,,,0.00,0,Wunderground v.1.15,2013-07-10 05:48:00,
2013-07-10 01:53:00,60.9,60.3,30.07,SE,128,0.0,1.0,98,0.00,,,0.00,0,Wunderground v.1.15,2013-07-10 05:53:00,
2013-07-10 01:58:00,60.9,60.3,30.07,South,183,1.0,1.0,98,0.00,,,0.00,0,Wunderground v.1.15,2013-07-10 05:58:00,
2013-07-10 02:03:00,60.9,60.3,30.07,ESE,119,0.0,1.0,98,0.00,,,0.00,0,Wunderground v.1.15,2013-07-10 06:03:00,
2013-07-10 02:09:00,60.9,60.3,30.07,SE,124,0.0,1.0,98,0.00,,,0.00,0,Wunderground v.1.15,2013-07-10 06:09:00,
2013-07-10 02:15:00,60.9,60.3,30.07,SSE,157,0.0,1.0,98,0.00,,,0.00,0,Wunderground v.1.15,2013-07-10 06:15:00,
2013-07-10 02:21:00,60.8,60.2,30.07,SSE,161,1.0,2.0,98,0.00,,,0.00,0,Wunderground v.1.15,2013-07-10 06:21:00,
2013-07-10 02:26:00,60.8,60.2,30.07,SSE,154,1.0,2.0,98,0.00,,,0.00,0,Wunderground v.1.15,2013-07-10 06:26:00,
2013-07-10 02:31:00,60.8,60.2,30.06,SSE,153,0.0,0.0,98,0.00,,,0.00,0,Wunderground v.1.15,2013-07-10 06:31:00,
2013-07-10 02:37:00,60.8,60.2,30.06,SE,130,0.0,1.0,98,0.00,,,0.00,0,Wunderground v.1.15,2013-07-10 06:37:00,
2013-07-10 02:43:00,60.8,60.2,30.06,SE,138,0.0,0.0,98,0.00,,,0.00,0,Wunderground v.1.15,2013-07-10 06:43:00,
2013-07-10 02:49:00,60.8,60.2,30.06,SSW,192,0.0,3.0,98,0.00,,,0.00,0,Wunderground v.1.15,2013-07-10 06:49:00,
2013-07-10 02:55:00,60.8,60.2,30.06,South,175,1.0,2.0,98,0.00,,,0.00,0,Wunderground v.1.15,2013-07-10 06:55:00,
2013-07-10 03:00:00,60.8,60.2,30.06,SE,124,1.0,1.0,98,0.00,,,0.00,0,Wunderground v.1.15,2013-07-10 07:00:00,
2013-07-10 03:06:00,60.8,60.2,30.06,SE,141,1.0,2.0,98,0.00,,,0.00,0,Wunderground v.1.15,2013-07-10 07:06:00,
2013-07-10 03:11:00,60.8,60.2,30.06,SE,141,0.0,1.0,98,0.00,,,0.00,0,Wunderground v.1.15,2013-07-10 07:11:00,
2013-07-10 03:16:00,60.8,60.2,30.06,SE,141,0.0,1.0,98,0.00,,,0.00,0,Wunderground v.1.15,2013-07-10 07:16:00,
2013-07-10 03:22:00,60.8,60.2,30.05,SE,144,1.0,3.0,98,0.00,,,0.00,0,Wunderground v.1.15,2013-07-10 07:22:00,
2013-07-10 03:28:00,60.7,60.1,30.05,SSE,157,1.0,3.0,98,0.00,,,0.00,0,Wunderground v.1.15,2013-07-10 07:28:00,
2013-07-10 03:33:00,60.7,60.1,30.05,SSE,148,0.0,1.0,98,0.00,,,0.00,0,Wunderground v.1.15,2013-07-10 07:33:00,
2013-07-10 03:38:00,60.8,60.2,30.05,SSE,167,0.0,1.0,98,0.00,,,0.00,0,Wunderground v.1.15,2013-07-10 07:38:00,
2013-07-10 03:43:00,60.7,60.1,30.05,South,171,1.0,2.0,98,0.00,,,0.00,0,Wunderground v.1.15,2013-07-10 07:43:00,
2013-07-10 03:49:00,60.7,60.1,30.05,SSE,153,1.0,2.0,98,0.00,,,0.00,0,Wunderground v.1.15,2013-07-10 07:49:00,
2013-07-10 03:54:00,60.7,60.1,30.05,SSE,150,1.0,2.0,98,0.00,,,0.00,0,Wunderground v.1.15,2013-07-10 07:54:00,
2013-07-10 04:00:00,60.7,60.1,30.04,SSE,153,0.0,0.0,98,0.00,,,0.00,0,Wunderground v.1.15,2013-07-10 08:00:00,
2013-07-10 04:05:00,60.7,60.1,30.04,SE,142,0.0,0.0,98,0.00,,,0.00,0,Wunderground v.1.15,2013-07-10 08:05:00,
2013-07-10 04:11:00,60.7,60.1,30.04,SE,142,0.0,0.0,98,0.00,,,0.00,0,Wunderground v.1.15,2013-07-10 08:11:00,
2013-07-10 04:16:00,60.7,60.1,30.04,SE,142,0.0,0.0,98,0.00,,,0.00,0,Wunderground v.1.15,2013-07-10 08:16:00,
2013-07-10 04:22:00,60.7,60.1,30.04,SSE,147,0.0,1.0,98,0.00,,,0.00,0,Wunderground v.1.15,2013-07-10 08:22:00,
2013-07-10 04:28:00,60.7,60.1,30.04,SSE,147,0.0,1.0,98,0.00,,,0.00,0,Wunderground v.1.15,2013-07-10 08:28:00,
2013-07-10 04:33:00,60.7,60.1,30.04,SSE,147,0.0,0.0,98,0.00,,,0.00,0,Wunderground v.1.15,2013-07-10 08:33:00,
2013-07-10 04:38:00,60.7,60.1,30.04,SSE,147,0.0,0.0,98,0.00,,,0.00,0,Wunderground v.1.15,2013-07-10 08:38:00,
2013-07-10 04:44:00,60.7,60.1,30.04,SE,140,0.0,2.0,98,0.00,,,0.00,0,Wunderground v.1.15,2013-07-10 08:44:00,
2013-07-10 04:49:00,60.6,60.0,30.05,SE,140,0.0,2.0,98,0.00,,,0.00,0,Wunderground v.1.15,2013-07-10 08:49:00,
2013-07-10 04:54:00,60.6,60.0,30.05,SE,140,0.0,0.0,98,0.00,,,0.00,0,Wunderground v.1.15,2013-07-10 08:54:00,
2013-07-10 05:00:00,60.6,60.0,30.05,SE,140,0.0,0.0,98,0.00,,,0.00,0,Wunderground v.1.15,2013-07-10 09:00:00,
2013-07-10 05:05:00,60.6,60.0,30.05,SE,140,0.0,1.0,98,0.00,,,0.00,0,Wunderground v.1.15,2013-07-10 09:05:00,
2013-07-10 05:10:00,60.6,60.0,30.05,SW,228,0.0,0.0,98,0.00,,,0.00,0,Wunderground v.1.15,2013-07-10 09:10:00,
2013-07-10 05:15:00,60.6,60.0,30.05,SW,227,0.0,0.0,98,0.00,,,0.00,0,Wunderground v.1.15,2013-07-10 09:15:00,
2013-07-10 05:21:00,60.6,60.0,30.05,SW,227,0.0,0.0,98,0.00,,,0.00,0,Wunderground v.1.15,2013-07-10 09:21:00,
2013-07-10 05:26:00,60.6,60.0,30.05,SW,223,0.0,0.0,98,0.00,,,0.00,0,Wunderground v.1.15,2013-07-10 09:26:00,
2013-07-10 05:32:00,60.6,60.0,30.05,South,182,0.0,2.0,98,0.00,,,0.00,7,Wunderground v.1.15,2013-07-10 09:32:00,
2013-07-10 05:38:00,60.6,60.0,30.05,South,182,0.0,2.0,98,0.00,,,0.00,9,Wunderground v.1.15,2013-07-10 09:38:00,
2013-07-10 05:43:00,60.6,60.0,30.04,South,182,0.0,0.0,98,0.00,,,0.00,12,Wunderground v.1.15,2013-07-10 09:43:00,
2013-07-10 05:49:00,60.7,60.1,30.04,South,182,0.0,0.0,98,0.00,,,0.00,16,Wunderground v.1.15,2013-07-10 09:49:00,
2013-07-10 05:55:00,60.6,60.0,30.04,South,182,0.0,0.0,98,0.00,,,0.00,18,Wunderground v.1.15,2013-07-10 09:55:00,
2013-07-10 06:01:00,60.6,60.0,30.04,South,182,0.0,0.0,98,0.00,,,0.00,19,Wunderground v.1.15,2013-07-10 10:01:00,
2013-07-10 06:06:00,60.6,60.0,30.04,South,182,0.0,1.0,98,0.00,,,0.00,19,Wunderground v.1.15,2013-07-10 10:06:00,
2013-07-10 06:11:00,60.5,59.9,30.04,South,182,0.0,0.0,98,0.00,,,0.00,21,Wunderground v.1.15,2013-07-10 10:11:00,
2013-07-10 06:17:00,60.6,60.0,30.04,South,182,0.0,0.0,98,0.00,,,0.00,23,Wunderground v.1.15,2013-07-10 10:17:00,
2013-07-10 06:23:00,60.6,60.0,30.05,South,182,0.0,0.0,98,0.00,,,0.00,26,Wunderground v.1.15,2013-07-10 10:23:00,
2013-07-10 06:29:00,60.7,60.1,30.05,South,182,0.0,0.0,98,0.00,,,0.00,12,Wunderground v.1.15,2013-07-10 10:29:00,
2013-07-10 06:35:00,60.7,60.1,30.05,South,182,0.0,0.0,98,0.00,,,0.00,14,Wunderground v.1.15,2013-07-10 10:35:00,
2013-07-10 06:41:00,60.8,60.2,30.04,NE,51,0.0,0.0,98,0.00,,,0.00,23,Wunderground v.1.15,2013-07-10 10:41:00,
2013-07-10 06:46:00,60.8,60.2,30.04,ENE,61,0.0,0.0,98,0.00,,,0.00,53,Wunderground v.1.15,2013-07-10 10:46:00,
2013-07-10 06:51:00,60.9,60.3,30.04,ESE,114,0.0,1.0,98,0.00,,,0.00,83,Wunderground v.1.15,2013-07-10 10:51:00,
2013-07-10 06:57:00,61.0,60.7,30.03,NNE,12,0.0,1.0,99,0.00,,,0.00,102,Wunderground v.1.15,2013-07-10 10:57:00,
2013-07-10 07:03:00,61.1,60.5,30.04,NNW,338,1.0,2.0,98,0.00,,,0.00,83,Wunderground v.1.15,2013-07-10 11:03:00,
2013-07-10 07:09:00,61.1,60.5,30.04,WNW,296,1.0,2.0,98,0.00,,,0.00,84,Wunderground v.1.15,2013-07-10 11:09:00,
2013-07-10 07:14:00,61.2,60.6,30.04,NNE,19,0.0,1.0,98,0.00,,,0.00,83,Wunderground v.1.15,2013-07-10 11:14:00,
2013-07-10 07:20:00,61.3,60.7,30.04,SE,143,0.0,2.0,98,0.00,,,0.00,86,Wunderground v.1.15,2013-07-10 11:20:00,
2013-07-10 07:25:00,61.3,60.7,30.03,ESE,107,1.0,2.0,98,0.00,,,0.00,90,Wunderground v.1.15,2013-07-10 11:25:00,
2013-07-10 07:31:00,61.5,60.9,30.03,NE,35,0.0,1.0,98,0.00,,,0.00,123,Wunderground v.1.15,2013-07-10 11:31:00,
2013-07-10 07:36:00,61.6,61.0,30.03,ENE,65,0.0,1.0,98,0.00,,,0.00,114,Wunderground v.1.15,2013-07-10 11:36:00,
2013-07-10 07:41:00,61.7,61.1,30.03,SSW,198,0.0,1.0,98,0.00,,,0.00,134,Wunderground v.1.15,2013-07-10 11:41:00,
2013-07-10 07:46:00,61.8,61.2,30.03,SE,136,0.0,1.0,98,0.00,,,0.00,134,Wunderground v.1.15,2013-07-10 11:46:00,
2013-07-10 07:52:00,62.0,61.4,30.03,South,184,0.0,3.0,98,0.00,,,0.00,109,Wunderground v.1.15,2013-07-10 11:52:00,
2013-07-10 07:57:00,62.0,61.1,30.03,SSE,164,1.0,4.0,97,0.00,,,0.00,160,Wunderground v.1.15,2013-07-10 11:57:00,
2013-07-10 08:02:00,61.9,61.0,30.03,SSE,156,3.0,5.0,97,0.00,,,0.00,188,Wunderground v.1.15,2013-07-10 12:02:00,
2013-07-10 08:07:00,62.1,61.2,30.03,SSE,150,2.0,5.0,97,0.00,,,0.00,214,Wunderground v.1.15,2013-07-10 12:07:00,
2013-07-10 08:13:00,62.5,61.6,30.03,SE,146,1.0,1.0,97,0.00,,,0.00,213,Wunderground v.1.15,2013-07-10 12:13:00,
2013-07-10 08:19:00,62.8,61.9,30.02,East,98,1.0,2.0,97,0.00,,,0.00,229,Wunderground v.1.15,2013-07-10 12:19:00,
2013-07-10 08:24:00,63.0,62.1,30.02,SSE,152,1.0,1.0,97,0.00,,,0.00,234,Wunderground v.1.15,2013-07-10 12:24:00,
2013-07-10 08:30:00,62.9,61.7,30.03,ESE,123,1.0,2.0,96,0.00,,,0.00,229,Wunderground v.1.15,2013-07-10 12:30:00,
2013-07-10 08:36:00,63.0,61.8,30.02,ESE,108,1.0,3.0,96,0.00,,,0.00,181,Wunderground v.1.15,2013-07-10 12:36:00,
2013-07-10 08:41:00,63.1,61.9,30.03,SSE,158,2.0,3.0,96,0.00,,,0.00,174,Wunderground v.1.15,2013-07-10 12:41:00,
2013-07-10 08:46:00,63.2,62.0,30.03,SSE,151,2.0,3.0,96,0.00,,,0.00,192,Wunderground v.1.15,2013-07-10 12:46:00,
2013-07-10 08:51:00,63.3,61.8,30.02,South,180,1.0,2.0,95,0.00,,,0.00,176,Wunderground v.1.15,2013-07-10 12:51:00,
2013-07-10 08:56:00,63.5,62.0,30.02,SE,144,1.0,2.0,95,0.00,,,0.00,179,Wunderground v.1.15,2013-07-10 12:56:00,
2013-07-10 09:01:00,63.6,62.1,30.02,South,170,1.0,1.0,95,0.00,,,0.00,179,Wunderground v.1.15,2013-07-10 13:01:00,
2013-07-10 09:06:00,63.7,62.2,30.02,SSE,153,1.0,4.0,95,0.00,,,0.00,153,Wunderground v.1.15,2013-07-10 13:06:00,
2013-07-10 09:12:00,63.6,62.1,30.01,ESE,112,2.0,3.0,95,0.00,,,0.00,209,Wunderground v.1.15,2013-07-10 13:12:00,
2013-07-10 09:17:00,63.9,62.4,30.01,South,169,2.0,3.0,95,0.00,,,0.00,214,Wunderground v.1.15,2013-07-10 13:17:00,
2013-07-10 09:23:00,64.1,62.6,30.01,SE,144,1.0,3.0,95,0.00,,,0.00,153,Wunderground v.1.15,2013-07-10 13:23:00,
2013-07-10 09:29:00,64.1,62.3,30.01,South,173,2.0,5.0,94,0.00,,,0.00,190,Wunderground v.1.15,2013-07-10 13:29:00,
2013-07-10 09:35:00,64.1,62.3,30.01,ESE,123,2.0,6.0,94,0.00,,,0.00,162,Wunderground v.1.15,2013-07-10 13:35:00,
2013-07-10 09:40:00,64.3,62.5,30.01,SSW,201,1.0,1.0,94,0.00,,,0.00,153,Wunderground v.1.15,2013-07-10 13:40:00,
2013-07-10 09:46:00,64.3,62.5,30.01,SE,134,1.0,6.0,94,0.00,,,0.00,197,Wunderground v.1.15,2013-07-10 13:46:00,
2013-07-10 09:51:00,64.1,62.3,30.01,SSE,163,2.0,2.0,94,0.00,,,0.00,202,Wunderground v.1.15,2013-07-10 13:51:00,
2013-07-10 09:56:00,64.1,62.0,30.01,SE,146,2.0,4.0,93,0.00,,,0.00,211,Wunderground v.1.15,2013-07-10 13:56:00,
2013-07-10 10:01:00,64.1,62.3,30.01,SE,144,2.0,2.0,94,0.00,,,0.00,199,Wunderground v.1.15,2013-07-10 14:01:00,
2013-07-10 10:06:00,64.2,62.4,30.01,SE,126,2.0,3.0,94,0.00,,,0.00,206,Wunderground v.1.15,2013-07-10 14:06:00,
2013-07-10 10:12:00,64.1,62.0,30.02,South,180,2.0,5.0,93,0.00,,,0.00,155,Wunderground v.1.15,2013-07-10 14:12:00,
2013-07-10 10:18:00,64.1,62.3,30.01,SE,136,2.0,5.0,94,0.00,,,0.00,132,Wunderground v.1.15,2013-07-10 14:18:00,
2013-07-10 10:23:00,63.9,61.8,30.01,SSE,150,2.0,5.0,93,0.00,,,0.00,165,Wunderground v.1.15,2013-07-10 14:23:00,
2013-07-10 10:28:00,63.9,62.1,30.01,South,182,2.0,5.0,94,0.00,,,0.00,176,Wunderground v.1.15,2013-07-10 14:28:00,
2013-07-10 10:33:00,63.7,61.6,30.01,South,172,3.0,5.0,93,0.00,,,0.00,200,Wunderground v.1.15,2013-07-10 14:33:00,
2013-07-10 10:39:00,63.7,61.9,30.01,SE,136,3.0,5.0,94,0.00,,,0.00,188,Wunderground v.1.15,2013-07-10 14:39:00,
2013-07-10 10:45:00,63.7,61.9,30.00,SSE,153,2.0,5.0,94,0.00,,,0.00,227,Wunderground v.1.15,2013-07-10 14:45:00,
2013-07-10 10:50:00,63.7,61.9,30.00,SSE,161,3.0,3.0,94,0.00,,,0.01,237,Wunderground v.1.15,2013-07-10 14:50:00,
2013-07-10 10:55:00,63.8,62.0,30.00,South,170,2.0,6.0,94,0.00,,,0.01,251,Wunderground v.1.15,2013-07-10 14:55:00,
2013-07-10 11:00:00,63.9,62.1,30.00,SSE,159,2.0,3.0,94,0.00,,,0.01,244,Wunderground v.1.15,2013-07-10 15:00:00,
2013-07-10 11:06:00,64.1,62.0,30.00,SSE,162,3.0,5.0,93,0.00,,,0.01,243,Wunderground v.1.15,2013-07-10 15:06:00,
2013-07-10 11:12:00,64.0,61.9,30.00,SW,217,4.0,6.0,93,0.00,,,0.01,327,Wunderground v.1.15,2013-07-10 15:12:00,
2013-07-10 11:17:00,63.9,61.8,29.99,SE,131,4.0,7.0,93,0.00,,,0.01,232,Wunderground v.1.15,2013-07-10 15:17:00,
2013-07-10 11:22:00,63.9,61.8,29.99,SSE,150,4.0,7.0,93,0.00,,,0.01,369,Wunderground v.1.15,2013-07-10 15:22:00,
2013-07-10 11:27:00,64.2,62.1,29.99,SSE,148,3.0,7.0,93,0.00,,,0.01,352,Wunderground v.1.15,2013-07-10 15:27:00,
2013-07-10 11:33:00,64.4,62.0,29.99,South,173,2.0,5.0,92,0.00,,,0.01,308,Wunderground v.1.15,2013-07-10 15:33:00,
2013-07-10 11:38:00,64.4,62.0,29.99,SW,231,3.0,5.0,92,0.00,,,0.01,301,Wunderground v.1.15,2013-07-10 15:38:00,
2013-07-10 11:43:00,64.4,62.0,29.99,SE,133,2.0,6.0,92,0.00,,,0.01,315,Wunderground v.1.15,2013-07-10 15:43:00,
2013-07-10 11:48:00,64.5,62.1,29.98,SSE,165,2.0,6.0,92,0.00,,,0.01,315,Wunderground v.1.15,2013-07-10 15:48:00,
2013-07-10 11:54:00,64.7,62.3,29.98,South,171,3.0,4.0,92,0.00,,,0.01,336,Wunderground v.1.15,2013-07-10 15:54:00,
2013-07-10 11:59:00,64.8,62.1,29.98,SSE,159,3.0,8.0,91,0.00,,,0.01,399,Wunderground v.1.15,2013-07-10 15:59:00,
2013-07-10 12:04:00,65.2,62.8,29.98,SSE,152,3.0,5.0,92,0.00,,,0.01,427,Wunderground v.1.15,2013-07-10 16:04:00,
2013-07-10 12:10:00,65.7,63.0,29.98,SSE,150,2.0,3.0,91,0.00,,,0.01,364,Wunderground v.1.15,2013-07-10 16:10:00,
2013-07-10 12:15:00,66.0,63.3,29.98,South,175,2.0,6.0,91,0.00,,,0.01,399,Wunderground v.1.15,2013-07-10 16:15:00,
2013-07-10 12:16:00,66.1,63.1,29.97,South,171,3.0,6.0,90,0.00,,,0.01,399,Wunderground v.1.15,2013-07-10 16:16:00,
2013-07-10 12:22:00,66.5,63.8,29.97,South,188,2.0,3.0,91,0.00,,,0.01,485,Wunderground v.1.15,2013-07-10 16:22:00,
2013-07-10 12:27:00,67.0,64.0,29.98,ESE,119,2.0,4.0,90,0.00,,,0.01,501,Wunderground v.1.15,2013-07-10 16:27:00,
2013-07-10 12:33:00,67.7,64.3,29.97,South,185,2.0,5.0,89,0.00,,,0.01,566,Wunderground v.1.15,2013-07-10 16:33:00,
2013-07-10 12:39:00,68.3,64.6,29.97,South,178,2.0,6.0,88,0.00,,,0.01,686,Wunderground v.1.15,2013-07-10 16:39:00,
2013-07-10 12:44:00,68.7,64.7,29.96,South,176,3.0,5.0,87,0.00,,,0.01,605,Wunderground v.1.15,2013-07-10 16:44:00,
2013-07-10 12:49:00,69.3,65.3,29.96,SE,138,2.0,5.0,87,0.00,,,0.01,578,Wunderground v.1.15,2013-07-10 16:49:00,
2013-07-10 12:54:00,69.5,65.1,29.96,South,180,2.0,2.0,86,0.00,,,0.01,438,Wunderground v.1.15,2013-07-10 16:54:00,
2013-07-10 13:00:00,69.8,65.4,29.96,SE,136,2.0,2.0,86,0.00,,,0.01,429,Wunderground v.1.15,2013-07-10 17:00:00,
2013-07-10 13:06:00,69.7,65.0,29.96,South,171,3.0,4.0,85,0.00,,,0.01,288,Wunderground v.1.15,2013-07-10 17:06:00,
2013-07-10 13:12:00,69.5,65.1,29.96,SSE,154,2.0,2.0,86,0.00,,,0.01,510,Wunderground v.1.15,2013-07-10 17:12:00,
2013-07-10 13:18:00,69.7,65.3,29.96,SSW,204,2.0,4.0,86,0.00,,,0.01,288,Wunderground v.1.15,2013-07-10 17:18:00,
2013-07-10 13:24:00,69.5,64.8,29.95,SW,231,3.0,3.0,85,0.00,,,0.01,299,Wunderground v.1.15,2013-07-10 17:24:00,
2013-07-10 13:30:00,69.3,64.9,29.96,SSE,152,2.0,3.0,86,0.00,,,0.01,278,Wunderground v.1.15,2013-07-10 17:30:00,
2013-07-10 13:35:00,68.8,64.8,29.95,SSE,161,3.0,5.0,87,0.00,,,0.01,179,Wunderground v.1.15,2013-07-10 17:35:00,
2013-07-10 13:42:00,68.5,64.5,29.96,SW,235,3.0,3.0,87,0.00,,,0.01,185,Wunderground v.1.15,2013-07-10 17:42:00,
2013-07-10 13:47:00,68.1,64.1,29.96,South,172,3.0,4.0,87,0.00,,,0.01,176,Wunderground v.1.15,2013-07-10 17:47:00,
2013-07-10 13:53:00,67.7,63.7,29.95,ESE,122,3.0,6.0,87,0.00,,,0.01,276,Wunderground v.1.15,2013-07-10 17:53:00,
2013-07-10 13:58:00,67.5,63.8,29.95,SSW,198,3.0,6.0,88,0.00,,,0.01,311,Wunderground v.1.15,2013-07-10 17:58:00,
2013-07-10 14:04:00,67.5,63.8,29.95,SSW,193,3.0,4.0,88,0.00,,,0.01,220,Wunderground v.1.15,2013-07-10 18:04:00,
2013-07-10 14:09:00,67.6,64.2,29.95,SSE,157,2.0,6.0,89,0.00,,,0.01,199,Wunderground v.1.15,2013-07-10 18:09:00,
2013-07-10 14:14:00,67.5,63.8,29.94,SSE,163,3.0,6.0,88,0.00,,,0.01,378,Wunderground v.1.15,2013-07-10 18:14:00,
2013-07-10 14:20:00,67.5,63.8,29.94,SE,144,4.0,4.0,88,0.00,,,0.01,323,Wunderground v.1.15,2013-07-10 18:20:00,
2013-07-10 14:25:00,67.1,63.4,29.94,South,177,4.0,4.0,88,0.00,,,0.01,181,Wunderground v.1.15,2013-07-10 18:25:00,
2013-07-10 14:31:00,66.8,63.1,29.94,SSE,166,4.0,6.0,88,0.00,,,0.01,181,Wunderground v.1.15,2013-07-10 18:31:00,
2013-07-10 14:36:00,66.2,62.9,29.94,ESE,113,4.0,7.0,89,0.00,,,0.01,190,Wunderground v.1.15,2013-07-10 18:36:00,
2013-07-10 14:42:00,65.6,62.6,29.93,South,171,4.0,6.0,90,0.00,,,0.01,139,Wunderground v.1.15,2013-07-10 18:42:00,
2013-07-10 14:48:00,65.1,62.1,29.93,SSE,165,4.0,6.0,90,0.00,,,0.01,213,Wunderground v.1.15,2013-07-10 18:48:00,
2013-07-10 14:53:00,65.1,62.4,29.93,SE,133,3.0,6.0,91,0.00,,,0.01,283,Wunderground v.1.15,2013-07-10 18:53:00,
2013-07-10 14:59:00,64.7,62.0,29.92,SE,146,4.0,8.0,91,0.00,,,0.01,213,Wunderground v.1.15,2013-07-10 18:59:00,
2013-07-10 15:04:00,64.5,62.1,29.92,ESE,121,4.0,5.0,92,0.00,,,0.01,227,Wunderground v.1.15,2013-07-10 19:04:00,
2013-07-10 15:10:00,64.9,62.5,29.92,SSE,161,3.0,3.0,92,0.00,,,0.01,404,Wunderground v.1.15,2013-07-10 19:10:00,
2013-07-10 15:15:00,65.3,62.9,29.91,East,99,3.0,8.0,92,0.00,,,0.01,338,Wunderground v.1.15,2013-07-10 19:15:00,
2013-07-10 15:20:00,65.7,63.3,29.91,ESE,122,3.0,3.0,92,0.00,,,0.01,401,Wunderground v.1.15,2013-07-10 19:20:00,
2013-07-10 15:25:00,66.2,63.8,29.91,SSE,159,2.0,5.0,92,0.00,,,0.01,200,Wunderground v.1.15,2013-07-10 19:25:00,
2013-07-10 15:31:00,66.5,63.8,29.91,SSE,147,2.0,6.0,91,0.00,,,0.01,185,Wunderground v.1.15,2013-07-10 19:31:00,
2013-07-10 15:37:00,66.3,63.6,29.90,SW,223,4.0,7.0,91,0.00,,,0.01,74,Wunderground v.1.15,2013-07-10 19:37:00,
2013-07-10 15:42:00,66.5,64.1,29.90,SSE,153,2.0,3.0,92,0.00,,,0.01,65,Wunderground v.1.15,2013-07-10 19:42:00,
2013-07-10 15:48:00,66.4,64.0,29.90,South,184,2.0,4.0,92,0.00,,,0.01,91,Wunderground v.1.15,2013-07-10 19:48:00,
2013-07-10 15:53:00,66.2,63.8,29.90,SSE,167,3.0,4.0,92,0.00,,,0.01,100,Wunderground v.1.15,2013-07-10 19:53:00,
2013-07-10 15:58:00,66.3,63.9,29.90,ESE,120,2.0,4.0,92,0.00,,,0.01,84,Wunderground v.1.15,2013-07-10 19:58:00,
2013-07-10 16:04:00,66.3,63.9,29.90,SSE,147,1.0,6.0,92,0.00,,,0.01,104,Wunderground v.1.15,2013-07-10 20:04:00,
2013-07-10 16:09:00,66.3,63.9,29.90,ESE,112,2.0,6.0,92,0.00,,,0.01,60,Wunderground v.1.15,2013-07-10 20:09:00,
2013-07-10 16:15:00,66.1,63.7,29.90,South,186,2.0,4.0,92,0.00,,,0.01,69,Wunderground v.1.15,2013-07-10 20:15:00,
2013-07-10 16:20:00,66.1,64.0,29.89,South,175,2.0,2.0,93,0.00,,,0.01,81,Wunderground v.1.15,2013-07-10 20:20:00,
2013-07-10 16:26:00,65.9,63.8,29.89,SSE,160,1.0,4.0,93,0.00,,,0.01,105,Wunderground v.1.15,2013-07-10 20:26:00,
2013-07-10 16:32:00,65.8,63.7,29.89,SSE,149,1.0,3.0,93,0.00,,,0.01,72,Wunderground v.1.15,2013-07-10 20:32:00,
2013-07-10 16:38:00,65.7,63.6,29.89,ENE,58,1.0,5.0,93,0.00,,,0.01,58,Wunderground v.1.15,2013-07-10 20:38:00,
2013-07-10 16:43:00,65.4,63.6,29.88,SW,215,2.0,4.0,94,0.00,,,0.01,70,Wunderground v.1.15,2013-07-10 20:43:00,
2013-07-10 16:49:00,65.2,63.4,29.88,ESE,107,2.0,4.0,94,0.00,,,0.01,102,Wunderground v.1.15,2013-07-10 20:49:00,
2013-07-10 16:55:00,65.1,63.3,29.88,SSE,153,2.0,3.0,94,0.00,,,0.01,98,Wunderground v.1.15,2013-07-10 20:55:00,
2013-07-10 17:01:00,65.0,63.5,29.88,SSE,161,2.0,2.0,95,0.00,,,0.01,65,Wunderground v.1.15,2013-07-10 21:01:00,
2013-07-10 17:07:00,64.8,63.3,29.87,SW,219,2.0,4.0,95,0.00,,,0.01,81,Wunderground v.1.15,2013-07-10 21:07:00,
2013-07-10 17:12:00,64.7,63.5,29.87,South,188,2.0,2.0,96,0.00,,,0.01,98,Wunderground v.1.15,2013-07-10 21:12:00,
2013-07-10 17:18:00,64.8,63.6,29.87,SE,128,2.0,6.0,96,0.00,,,0.01,88,Wunderground v.1.15,2013-07-10 21:18:00,
2013-07-10 17:24:00,64.6,63.4,29.86,SSE,157,3.0,5.0,96,0.00,,,0.01,74,Wunderground v.1.15,2013-07-10 21:24:00,
2013-07-10 17:30:00,64.4,63.2,29.86,South,175,3.0,3.0,96,0.00,,,0.01,56,Wunderground v.1.15,2013-07-10 21:30:00,
2013-07-10 17:35:00,64.4,63.2,29.87,SE,134,2.0,5.0,96,0.00,,,0.01,39,Wunderground v.1.15,2013-07-10 21:35:00,
2013-07-10 17:41:00,64.2,63.0,29.87,SE,129,2.0,4.0,96,0.00,,,0.01,23,Wunderground v.1.15,2013-07-10 21:41:00,
2013-07-10 17:46:00,64.0,63.1,29.86,SE,143,2.0,5.0,97,0.00,,,0.01,26,Wunderground v.1.15,2013-07-10 21:46:00,
2013-07-10 17:51:00,64.0,63.1,29.86,South,181,2.0,2.0,97,0.00,,,0.01,49,Wunderground v.1.15,2013-07-10 21:51:00,
2013-07-10 17:57:00,63.9,63.0,29.86,South,182,1.0,4.0,97,0.00,,,0.01,58,Wunderground v.1.15,2013-07-10 21:57:00,
2013-07-10 18:02:00,63.9,63.0,29.86,SSE,153,1.0,2.0,97,0.00,,,0.01,35,Wunderground v.1.15,2013-07-10 22:02:00,
2013-07-10 18:07:00,63.9,63.0,29.86,SSW,194,1.0,2.0,97,0.00,,,0.01,21,Wunderground v.1.15,2013-07-10 22:07:00,
2013-07-10 18:13:00,63.8,62.9,29.86,SE,125,2.0,3.0,97,0.00,,,0.01,19,Wunderground v.1.15,2013-07-10 22:13:00,
2013-07-10 18:18:00,63.8,62.9,29.86,SSE,155,2.0,3.0,97,0.00,,,0.01,21,Wunderground v.1.15,2013-07-10 22:18:00,
2013-07-10 18:23:00,63.8,62.9,29.85,SE,132,1.0,3.0,97,0.00,,,0.01,21,Wunderground v.1.15,2013-07-10 22:23:00,
2013-07-10 18:28:00,63.7,62.8,29.85,SSE,156,1.0,8.0,97,0.00,,,0.01,16,Wunderground v.1.15,2013-07-10 22:28:00,
2013-07-10 18:34:00,63.6,63.0,29.85,SE,127,2.0,5.0,98,0.00,,,0.01,16,Wunderground v.1.15,2013-07-10 22:34:00,
2013-07-10 18:40:00,63.6,63.0,29.84,SSW,200,1.0,1.0,98,0.00,,,0.01,25,Wunderground v.1.15,2013-07-10 22:40:00,
2013-07-10 18:45:00,63.7,63.1,29.84,SE,136,1.0,2.0,98,0.00,,,0.01,23,Wunderground v.1.15,2013-07-10 22:45:00,
2013-07-10 18:51:00,63.6,63.0,29.84,South,181,1.0,1.0,98,0.00,,,0.01,23,Wunderground v.1.15,2013-07-10 22:51:00,
2013-07-10 18:56:00,63.6,63.0,29.84,SSE,159,1.0,4.0,98,0.00,,,0.01,25,Wunderground v.1.15,2013-07-10 22:56:00,
2013-07-10 19:02:00,63.6,63.0,29.84,SSE,158,2.0,4.0,98,0.00,,,0.01,19,Wunderground v.1.15,2013-07-10 23:02:00,
2013-07-10 19:08:00,63.6,63.0,29.85,SSE,154,1.0,4.0,98,0.00,,,0.01,21,Wunderground v.1.15,2013-07-10 23:08:00,
2013-07-10 19:14:00,63.5,62.9,29.84,SSE,157,2.0,5.0,98,0.00,,,0.01,23,Wunderground v.1.15,2013-07-10 23:14:00,
2013-07-10 19:19:00,63.4,62.8,29.84,SSE,159,2.0,5.0,98,0.00,,,0.01,25,Wunderground v.1.15,2013-07-10 23:19:00,
2013-07-10 19:24:00,63.4,62.8,29.84,ESE,119,2.0,4.0,98,0.00,,,0.01,21,Wunderground v.1.15,2013-07-10 23:24:00,
2013-07-10 19:30:00,63.3,62.7,29.84,SE,136,3.0,3.0,98,0.00,,,0.01,16,Wunderground v.1.15,2013-07-10 23:30:00,
2013-07-10 19:36:00,63.2,62.6,29.84,South,178,2.0,4.0,98,0.00,,,0.01,12,Wunderground v.1.15,2013-07-10 23:36:00,
2013-07-10 19:41:00,63.3,62.7,29.83,SSE,151,1.0,1.0,98,0.00,,,0.01,12,Wunderground v.1.15,2013-07-10 23:41:00,
2013-07-10 19:46:00,63.2,62.6,29.83,SSE,152,1.0,2.0,98,0.00,,,0.01,11,Wunderground v.1.15,2013-07-10 23:46:00,
2013-07-10 19:51:00,63.2,62.6,29.82,South,190,1.0,2.0,98,0.00,,,0.01,11,Wunderground v.1.15,2013-07-10 23:51:00,
2013-07-10 19:57:00,63.2,62.6,29.82,South,180,1.0,4.0,98,0.00,,,0.01,7,Wunderground v.1.15,2013-07-10 23:57:00,
2013-07-10 20:02:00,63.2,62.6,29.83,SSE,150,2.0,2.0,98,0.00,,,0.01,5,Wunderground v.1.15,2013-07-11 00:02:00,
2013-07-10 20:07:00,63.1,62.5,29.83,SE,134,1.0,3.0,98,0.00,,,0.01,0,Wunderground v.1.15,2013-07-11 00:07:00,
2013-07-10 20:12:00,63.1,62.8,29.83,SE,137,2.0,5.0,99,0.00,,,0.01,0,Wunderground v.1.15,2013-07-11 00:12:00,
2013-07-10 20:17:00,63.1,62.8,29.83,SSE,152,1.0,5.0,99,0.00,,,0.01,0,Wunderground v.1.15,2013-07-11 00:17:00,
2013-07-10 20:23:00,63.1,62.8,29.84,SSE,165,1.0,4.0,99,0.00,,,0.01,0,Wunderground v.1.15,2013-07-11 00:23:00,
2013-07-10 20:29:00,63.1,62.8,29.83,South,175,2.0,4.0,99,0.00,,,0.01,0,Wunderground v.1.15,2013-07-11 00:29:00,
2013-07-10 20:35:00,63.0,62.7,29.83,SSE,148,1.0,3.0,99,0.00,,,0.01,0,Wunderground v.1.15,2013-07-11 00:35:00,
2013-07-10 20:41:00,63.1,62.8,29.83,South,169,1.0,1.0,99,0.00,,,0.01,0,Wunderground v.1.15,2013-07-11 00:41:00,
2013-07-10 20:46:00,63.1,62.8,29.83,SSE,161,1.0,2.0,99,0.00,,,0.01,0,Wunderground v.1.15,2013-07-11 00:46:00,
2013-07-10 20:52:00,63.1,62.8,29.83,SSE,158,1.0,1.0,99,0.00,,,0.01,0,Wunderground v.1.15,2013-07-11 00:52:00,
2013-07-10 20:57:00,63.1,62.8,29.83,SSE,158,0.0,1.0,99,0.00,,,0.01,0,Wunderground v.1.15,2013-07-11 00:57:00,
2013-07-10 21:02:00,63.2,62.9,29.82,South,181,0.0,0.0,99,0.00,,,0.01,0,Wunderground v.1.15,2013-07-11 01:02:00,
2013-07-10 21:07:00,63.2,62.9,29.83,South,181,0.0,0.0,99,0.00,,,0.01,0,Wunderground v.1.15,2013-07-11 01:07:00,
2013-07-10 21:13:00,63.2,62.9,29.83,South,178,0.0,0.0,99,0.00,,,0.01,0,Wunderground v.1.15,2013-07-11 01:13:00,
2013-07-10 21:18:00,63.3,63.0,29.83,South,178,0.0,2.0,99,0.00,,,0.02,0,Wunderground v.1.15,2013-07-11 01:18:00,
2013-07-10 21:23:00,63.4,63.1,29.82,SW,231,0.0,1.0,99,0.00,,,0.02,0,Wunderground v.1.15,2013-07-11 01:23:00,
2013-07-10 21:29:00,63.4,63.1,29.82,SSW,196,0.0,1.0,99,0.00,,,0.02,0,Wunderground v.1.15,2013-07-11 01:29:00,
2013-07-10 21:35:00,63.5,63.2,29.82,SSW,196,0.0,1.0,99,0.00,,,0.02,0,Wunderground v.1.15,2013-07-11 01:35:00,
2013-07-10 21:41:00,63.6,63.3,29.82,SSW,196,0.0,2.0,99,0.00,,,0.03,0,Wunderground v.1.15,2013-07-11 01:41:00,
2013-07-10 21:46:00,63.7,63.4,29.82,SSW,196,0.0,2.0,99,0.00,,,0.03,0,Wunderground v.1.15,2013-07-11 01:46:00,
2013-07-10 21:52:00,63.8,63.5,29.81,South,184,0.0,2.0,99,0.00,,,0.03,0,Wunderground v.1.15,2013-07-11 01:52:00,
2013-07-10 21:57:00,63.9,63.6,29.81,South,183,1.0,2.0,99,0.00,,,0.03,0,Wunderground v.1.15,2013-07-11 01:57:00,
2013-07-10 22:03:00,64.0,63.7,29.81,SE,139,1.0,2.0,99,0.00,,,0.03,0,Wunderground v.1.15,2013-07-11 02:03:00,
2013-07-10 22:09:00,64.0,63.7,29.81,South,184,1.0,4.0,99,0.00,,,0.03,0,Wunderground v.1.15,2013-07-11 02:09:00,
2013-07-10 22:14:00,64.1,63.8,29.81,South,173,1.0,2.0,99,0.00,,,0.03,0,Wunderground v.1.15,2013-07-11 02:14:00,
2013-07-10 22:20:00,64.1,63.8,29.81,SSW,205,1.0,2.0,99,0.00,,,0.03,0,Wunderground v.1.15,2013-07-11 02:20:00,
2013-07-10 22:25:00,64.2,63.9,29.80,SSE,166,1.0,2.0,99,0.00,,,0.03,0,Wunderground v.1.15,2013-07-11 02:25:00,
2013-07-10 22:31:00,64.3,64.0,29.80,South,187,2.0,2.0,99,0.00,,,0.03,0,Wunderground v.1.15,2013-07-11 02:31:00,
2013-07-10 22:37:00,64.3,64.0,29.80,SSW,199,2.0,3.0,99,0.00,,,0.04,0,Wunderground v.1.15,2013-07-11 02:37:00,
2013-07-10 22:42:00,64.3,64.0,29.80,SW,219,1.0,2.0,99,0.00,,,0.04,0,Wunderground v.1.15,2013-07-11 02:42:00,
2013-07-10 22:47:00,64.4,64.1,29.80,South,184,1.0,2.0,99,0.00,,,0.04,0,Wunderground v.1.15,2013-07-11 02:47:00,
2013-07-10 22:53:00,64.4,64.1,29.80,South,178,1.0,3.0,99,0.00,,,0.04,0,Wunderground v.1.15,2013-07-11 02:53:00,
2013-07-10 22:59:00,64.4,64.1,29.80,SE,140,1.0,3.0,99,0.00,,,0.04,0,Wunderground v.1.15,2013-07-11 02:59:00,
2013-07-10 23:04:00,64.5,64.2,29.79,South,175,1.0,2.0,99,0.00,,,0.04,0,Wunderground v.1.15,2013-07-11 03:04:00,
2013-07-10 23:10:00,64.5,64.2,29.78,South,180,1.0,1.0,99,0.00,,,0.04,0,Wunderground v.1.15,2013-07-11 03:10:00,
2013-07-10 23:16:00,64.6,64.3,29.78,SSW,201,1.0,1.0,99,0.00,,,0.04,0,Wunderground v.1.15,2013-07-11 03:16:00,
2013-07-10 23:22:00,64.7,64.4,29.77,SSE,161,2.0,4.0,99,0.00,,,0.04,0,Wunderground v.1.15,2013-07-11 03:22:00,
2013-07-10 23:27:00,64.9,64.6,29.77,SSW,193,3.0,4.0,99,0.00,,,0.04,0,Wunderground v.1.15,2013-07-11 03:27:00,
2013-07-10 23:33:00,65.0,65.0,29.78,SSW,210,2.0,3.0,100,0.00,,,0.04,0,Wunderground v.1.15,2013-07-11 03:33:00,
2013-07-10 23:38:00,65.1,65.1,29.78,SW,220,1.0,3.0,100,0.00,,,0.04,0,Wunderground v.1.15,2013-07-11 03:38:00,
2013-07-10 23:44:00,65.1,65.1,29.78,SSW,196,1.0,1.0,100,0.00,,,0.04,0,Wunderground v.1.15,2013-07-11 03:44:00,
2013-07-10 23:49:00,65.2,65.2,29.78,SSW,197,0.0,2.0,100,0.00,,,0.04,0,Wunderground v.1.15,2013-07-11 03:49:00,
2013-07-10 23:54:00,65.2,64.9,29.78,SSW,205,0.0,1.0,99,0.00,,,0.04,0,Wunderground v.1.15,2013-07-11 03:54:00,